This demonstration page uses our WeatherBlox Daily Observations layout. Learn more.

38.89511, -77.03637

Hourly Observations for January 22, 2015

Temp ( °F °C ) Dew Point ( °F °C ) Humidity (%) Winds ( mph kmh ) Pressure ( in mb ) Visibility ( mi km ) Precip ( " mm )
2:52 am 02:52 Cloudy with Mist and Fog 37 3 32 0 81 81 E 3 6 30.21 1023 4 6.437376 0 0
3:49 am 03:49 Cloudy with Mist and Fog 37 3 32 0 81 81 S 5 7 30.21 1023 4 6.437376 0 0
3:52 am 03:52 Cloudy with Mist and Fog 37 3 32 0 81 81 S 5 7 30.21 1023 4 6.437376 0 0
4:52 am 04:52 Cloudy with Mist and Fog 37 3 30 -1 75 75 SSW 5 7 30.21 1023 5 8.04672 0 0
5:52 am 05:52 Cloudy with Mist and Fog 37 3 30 -1 75 75 SSW 5 7 30.21 1023 5 8.04672 0 0
6:52 am 06:52 Cloudy with Light Rain 36 2 30 -1 81 81 S 7 11 30.24 1024 6 9.656064 0.001 0.001
7:24 am 07:24 Cloudy with Mist and Fog 37 3 32 0 81 81 SSW 10 17 30.24 1024 4 6.437376 0 0
7:52 am 07:52 Cloudy with Mist and Fog 37 3 32 0 81 81 SSW 7 11 30.24 1024 3 4.828032 0.001 0.001
8:26 am 08:26 Cloudy with Mist and Fog 37 3 32 0 81 81 N 6 9 30.27 1025 2.5 4.02336 0 0
8:52 am 08:52 Cloudy with Mist and Fog 37 3 32 0 81 81 SSW 8 13 30.27 1025 2 3.218688 0 0
9:18 am 09:18 Mostly Cloudy with Mist and Fog 37 3 34 1 87 87 SSW 6 9 30.27 1025 3 4.828032 0 0
9:52 am 09:52 Mostly Cloudy with Mist and Fog 37 3 32 0 81 81 SSW 9 15 30.3 1026 4 6.437376 0 0
10:08 am 10:08 Mostly Cloudy with Mist and Fog 37 3 32 0 81 81 SSW 7 11 30.33 1027 4 6.437376 0 0
10:52 am 10:52 Partly Cloudy 45 7 34 1 66 66 N 3 6 30.3 1026 7 11.265408 0 0
11:52 am 11:52 Partly Cloudy 48 9 30 -1 50 50 NW 16 26 30.3 1026 10 16.09344 0 0
12:52 pm 12:52 Mostly Cloudy 46 8 30 -1 53 53 NNW 15 24 30.3 1026 10 16.09344 0 0
1:52 pm 13:52 Mostly Cloudy 48 9 27 -3 43 43 NW 16 26 30.3 1026 10 16.09344 0 0
2:52 pm 14:52 Partly Cloudy 48 9 25 -4 40 40 WNW 22 35 30.3 1026 10 16.09344 0 0
3:52 pm 15:52 Partly Cloudy 48 9 25 -4 40 40 NW 10 17 30.33 1027 10 16.09344 0 0
4:52 pm 16:52 Mostly Cloudy 46 8 25 -4 43 43 NW 10 17 30.33 1027 10 16.09344 0 0
5:52 pm 17:52 Mostly Cloudy 45 7 25 -4 46 46 N 5 7 30.36 1028 10 16.09344 0 0
6:52 pm 18:52 Partly Cloudy 43 6 25 -4 49 49 NW 10 17 30.39 1029 10 16.09344 0 0
7:52 pm 19:52 Partly Cloudy 43 6 25 -4 49 49 N 6 9 30.39 1029 10 16.09344 0 0
8:52 pm 20:52 Cloudy 41 5 25 -4 53 53 NNW 6 9 30.39 1029 10 16.09344 0 0
9:52 pm 21:52 Mostly Cloudy 39 4 25 -4 56 56 N 6 9 30.39 1029 10 16.09344 0 0
10:52 pm 22:52 Mostly Cloudy 37 3 25 -4 60 60 N 7 11 30.39 1029 10 16.09344 0 0
11:52 pm 23:52 Mostly Cloudy 37 3 27 -3 65 65 NNW 8 13 30.39 1029 10 16.09344 0 0

Powered by AerisWeather